GFSCGP_925_temp_282.txt.gz
Temp
17 16 16 16 17 20 19 20 21 21 20 19 18 16 17 18 17 16 16 16 16 17 17 20 22 22 21 21 20 20 19 19 18 17 17 17 16 16 16 16 16 16 16 15
16 15 16 18 18 18 19 21 20 20 19 19 18 17 17 17 17 16 16 16 15 15 14 16 20 21 20 20 19 19 19 19 18 18 17 17 16 16 16 16 16 15 15 15
15 19 18 17 19 18 19 18 19 20 19 18 18 17 17 18 15 14 13 12 12 13 12 13 15 17 18 19 19 19 19 19 18 18 17 16 16 16 15 15 15 15 15 15
17 18 19 18 18 18 19 19 19 19 16 15 17 16 17 16 13 13 12 11 10 10 11 12 12 15 17 18 18 17 18 18 18 17 17 16 16 15 15 15 15 15 15 14
17 16 17 18 18 18 18 18 18 17 14 14 16 13 16 16 14 12 11 11 10 10 10 10 11 13 14 16 17 17 17 17 17 17 17 16 16 16 15 15 15 14 14 14
17 17 18 17 16 18 15 15 13 11 11 12 15 15 16 15 14 12 11 10 10 10 10 10 11 12 13 15 15 15 16 16 16 16 16 16 16 16 15 14 15 14 14 14
16 17 17 16 16 16 15 14 11 11 10 14 14 14 15 12 11 11 10 9 9 9 9 9 9 9 10 12 13 14 14 14 14 15 15 15 15 15 15 15 14 14 14 13
12 13 14 15 16 15 14 15 12 13 12 14 15 14 14 12 11 10 10 9 9 8 8 8 8 8 8 9 10 12 12 13 13 13 13 14 14 14 15 14 14 14 14 14
13 16 15 15 16 16 15 14 15 13 13 12 13 13 13 12 11 10 9 9 8 7 7 7 8 7 8 8 8 9 10 11 12 12 12 13 13 13 13 13 14 14 13 14
15 14 14 14 16 15 15 15 14 12 13 15 13 12 12 11 10 10 9 8 8 7 7 7 7 7 7 8 8 8 8 8 9 10 11 11 12 12 12 12 12 13 13 13
15 15 13 14 13 13 14 14 14 13 11 12 12 13 12 12 10 9 8 8 7 7 6 6 7 7 7 7 7 7 8 8 8 8 9 10 10 11 11 11 12 12 13 13
16 12 11 13 13 14 14 14 13 12 14 9 9 12 10 10 9 9 8 8 7 7 6 6 7 7 7 6 6 6 6 6 6 7 8 8 9 9 9 9 10 11 11 12
15 13 10 12 13 13 13 13 14 14 12 11 11 12 9 8 8 8 7 7 7 7 6 6 6 6 6 6 5 5 6 5 6 6 6 7 7 7 8 8 9 10 10 10
15 13 13 14 14 12 12 13 13 14 11 13 12 8 7 7 7 6 6 6 6 6 6 5 5 5 5 5 5 5 5 5 5 5 6 6 6 6 6 7 8 8 9 9
14 13 14 14 14 13 13 13 13 14 14 14 13 10 9 8 7 7 6 6 5 5 5 5 4 4 4 4 4 4 4 4 4 4 4 4 5 5 6 6 7 7 7 8
10 10 10 11 14 14 15 14 12 13 14 14 12 10 8 7 6 6 6 6 5 5 5 4 4 4 4 3 3 3 3 3 3 3 3 3 3 3 3 4 5 6 7 7
8 8 9 10 10 9 10 11 12 13 12 13 12 10 8 7 7 6 5 5 5 4 4 4 3 3 3 3 3 3 3 3 2 2 2 2 2 2 2 2 3 4 5 5
7 8 7 8 8 10 8 6 8 8 6 7 7 8 8 7 6 6 5 5 5 5 4 3 3 3 3 3 3 3 2 2 2 2 1 1 1 1 1 1 2 2 3 4
7 7 8 9 8 8 6 7 7 9 6 7 6 6 5 5 6 5 6 5 4 4 3 3 3 3 2 2 2 2 2 1 1 1 0 0 0 0 0 1 2 1 2 3
6 6 9 7 9 9 6 7 7 8 6 7 6 5 5 5 4 4 4 4 3 3 3 2 2 2 1 1 0 0 -0 -0 -1 -1 -1 -1 -1 -1 -1 -0 1 1 2 3
6 6 8 8 7 6 6 7 8 8 7 6 6 6 6 5 5 3 3 3 3 2 2 1 1 0 -0 -0 -1 -1 -1 -2 -2 -2 -2 -2 -2 -2 -1 0 1 1 1 2
6 6 6 6 6 7 6 7 7 5 5 6 5 5 4 3 2 2 2 1 1 0 0 -0 -0 -1 -1 -1 -2 -2 -3 -3 -3 -4 -3 -3 -3 -2 -1 0 0 0 1 2
6 6 6 7 7 6 6 7 6 6 6 5 4 3 3 2 2 1 0 -0 -0 -1 -1 -1 -1 -2 -2 -2 -3 -4 -4 -4 -4 -4 -4 -4 -3 -3 -2 -0 -0 -0 1 1
4 5 4 5 6 5 5 4 4 4 3 2 2 2 2 1 0 -0 -1 -2 -2 -2 -2 -2 -2 -3 -3 -3 -3 -4 -4 -4 -4 -4 -4 -4 -4 -2 -2 -1 -1 -0 0 1
3 5 4 4 3 3 2 1 2 1 0 0 -0 0 -0 -1 -1 -2 -2 -2 -2 -2 -3 -3 -3 -3 -4 -4 -4 -4 -4 -4 -4 -4 -4 -4 -4 -4 -3 -2 -1 -1 0 1
-0 3 4 4 2 2 -1 -2 -1 -2 -2 -2 -2 -2 -2 -2 -2 -2 -3 -3 -3 -3 -4 -4 -4 -4 -4 -4 -4 -4 -4 -5 -5 -5 -4 -4 -4 -3 -3 -2 -1 -1 -0 1

GFSCGP_925_temp_288.txt.gz
Temp
16 15 14 16 16 19 17 18 19 19 18 19 18 17 14 12 11 10 9 8 10 13 12 13 15 18 18 18 18 18 18 18 17 16 16 16 16 16 16 16 16 16 16 15
15 14 15 15 16 18 17 18 19 18 18 18 17 18 14 12 12 10 9 8 8 9 9 10 12 14 16 17 17 17 18 18 18 17 17 16 16 16 16 16 16 15 15 15
15 17 14 16 16 17 17 17 17 19 17 16 17 16 15 13 12 10 9 8 8 7 8 8 9 10 13 15 16 17 17 17 17 17 16 16 16 16 16 16 16 15 15 15
16 16 15 16 16 16 17 16 17 17 15 16 15 16 16 14 12 10 8 7 6 6 7 8 8 8 9 11 13 15 15 15 16 16 16 16 16 16 16 16 16 15 15 15
16 15 14 16 16 16 17 15 15 15 13 14 15 12 15 13 13 12 9 7 6 6 6 6 7 7 8 10 12 13 13 14 14 15 15 15 15 15 15 15 16 15 15 14
16 15 16 16 14 16 12 13 12 10 11 11 14 15 15 12 13 10 9 7 6 6 5 6 6 7 7 9 10 11 12 12 12 13 13 14 14 14 13 14 13 14 14 14
15 16 15 15 14 15 14 14 10 11 9 13 12 13 14 13 11 9 8 6 5 5 4 5 5 5 6 7 9 10 11 10 11 12 12 12 12 12 12 12 12 12 14 14
13 14 14 15 15 14 13 15 12 13 11 14 12 12 14 10 8 8 7 6 5 5 4 4 4 4 5 6 7 8 9 9 10 10 10 11 11 11 10 11 11 12 12 12
14 16 14 14 14 16 14 14 14 11 10 10 11 12 11 8 8 7 6 6 5 5 4 4 4 4 5 5 6 7 7 8 9 9 10 10 10 11 10 10 10 10 10 10
15 15 13 14 15 14 14 13 14 11 12 14 12 12 13 9 8 7 6 5 5 5 4 4 4 4 5 5 5 6 6 6 6 7 8 8 8 8 8 9 8 8 8 9
14 14 12 14 13 13 13 14 12 12 11 11 12 13 11 11 10 8 7 6 5 4 4 3 4 4 5 5 5 5 5 6 6 6 6 7 7 7 7 7 7 8 8 8
14 12 11 12 13 13 14 13 13 12 13 8 8 12 7 6 10 8 7 5 4 4 4 3 4 4 4 4 5 5 5 5 5 5 6 6 6 7 7 7 7 7 8 8
13 13 10 12 12 12 13 12 13 12 11 10 10 13 7 7 8 8 6 5 5 4 3 3 3 3 3 4 4 4 4 4 5 5 5 5 5 5 5 5 5 6 6 6
15 12 15 17 15 12 11 12 12 15 11 12 11 11 7 6 6 6 6 5 4 4 3 2 2 2 3 3 3 3 3 3 4 4 4 3 3 4 4 4 5 5 5 5
14 13 14 13 12 12 12 12 13 14 16 14 13 12 9 7 7 6 6 4 4 3 2 2 1 2 2 2 3 3 3 3 3 3 3 3 3 3 3 3 4 4 4 4
11 10 10 11 12 13 14 12 14 14 13 14 11 12 10 8 7 5 5 4 3 3 2 2 1 2 1 1 1 2 2 2 2 2 1 1 1 2 2 2 2 2 2 2
9 9 9 10 9 10 12 10 11 12 12 14 12 11 8 7 7 6 5 5 3 2 2 1 1 1 1 1 1 1 1 1 1 1 0 0 0 0 0 0 -0 -0 -0 0
9 9 7 6 8 9 10 7 8 10 8 8 8 7 8 8 7 5 5 4 3 2 1 1 1 1 0 0 0 -0 -0 -0 -1 -1 -1 -1 -1 -1 -1 -1 -2 -1 -1 -1
8 8 7 9 8 10 7 7 8 11 11 7 6 6 5 5 5 3 4 4 3 2 1 1 1 0 -0 -1 -0 -0 -1 -1 -1 -1 -1 -2 -2 -2 -2 -2 -2 -2 -2 -2
7 7 10 8 11 10 9 6 7 9 10 5 6 5 6 7 6 3 3 2 1 1 1 0 -0 -1 -1 -1 -1 -1 -1 -1 -2 -2 -2 -2 -3 -3 -3 -3 -3 -3 -2 -2
8 7 11 10 9 8 5 6 7 11 11 5 6 6 6 5 4 3 2 1 1 0 -0 -0 -1 -1 -2 -2 -1 -2 -2 -2 -3 -2 -2 -3 -3 -3 -4 -3 -3 -3 -2 -1
10 10 10 8 9 10 5 6 8 5 4 5 5 5 4 3 3 3 2 1 0 -1 -1 -1 -1 -2 -2 -2 -2 -2 -3 -3 -3 -3 -3 -3 -3 -3 -3 -4 -3 -3 -3 -2
7 7 7 8 6 4 3 5 5 5 5 4 4 3 3 2 1 1 0 -1 -1 -1 -2 -2 -2 -2 -2 -3 -3 -4 -4 -4 -4 -4 -3 -3 -3 -3 -4 -4 -4 -4 -3 -1
4 4 4 6 3 2 2 3 3 4 3 3 3 3 2 1 0 -1 -1 -2 -3 -2 -3 -3 -3 -3 -4 -4 -4 -4 -4 -4 -4 -4 -4 -3 -4 -4 -4 -4 -4 -4 -3 -2
2 4 3 1 0 1 -0 0 1 1 1 0 -0 0 0 -1 -2 -2 -3 -4 -3 -3 -4 -4 -4 -4 -4 -4 -4 -4 -5 -5 -5 -5 -5 -5 -5 -5 -5 -5 -5 -4 -3 -2
-2 -1 4 4 2 2 -1 -2 -0 -1 -2 -2 -2 -3 -3 -3 -4 -4 -5 -4 -4 -5 -5 -5 -5 -5 -5 -5 -5 -5 -5 -5 -6 -6 -6 -6 -6 -6 -6 -5 -4 -4 -3 -2

GFSCGP_925_temp_294.txt.gz
Temp
19 20 21 22 23 23 24 25 25 22 20 22 23 24 22 18 19 19 19 19 18 18 15 14 14 15 16 18 18 18 17 17 16 16 16 16 16 15 15 15 15 15 15 15
18 19 22 23 21 21 22 24 22 19 19 21 21 23 20 18 16 16 16 17 16 15 16 14 13 13 15 17 17 18 17 17 16 16 16 16 16 16 16 15 15 15 14 15
20 20 18 20 19 21 21 23 22 23 19 19 21 23 20 17 16 15 14 13 13 13 14 13 13 12 13 15 16 17 17 17 16 16 15 15 15 15 14 14 14 15 14 14
21 16 18 19 20 22 21 21 21 19 22 23 19 25 23 20 18 16 14 14 13 13 12 12 11 11 10 10 13 15 16 16 16 15 15 16 17 17 15 15 14 14 15 15
19 16 18 19 20 21 21 20 20 20 20 21 20 22 26 18 19 18 15 13 13 12 11 11 9 8 7 9 10 13 14 14 14 14 15 15 16 15 14 13 14 14 14 14
17 16 19 20 17 20 17 19 18 18 19 19 23 23 26 22 22 20 15 13 12 12 11 10 8 7 7 7 9 10 12 12 12 13 13 14 14 13 13 13 13 12 13 13
16 16 16 17 16 17 19 21 17 18 17 20 16 19 25 20 17 18 14 12 11 11 11 11 10 8 7 7 7 9 11 10 11 12 12 12 12 12 11 11 11 11 11 11
17 16 16 17 19 18 19 23 19 18 18 21 15 19 23 13 13 15 13 12 10 10 10 10 9 9 8 7 7 7 7 8 9 10 10 10 10 10 9 9 9 9 9 9
19 18 14 15 16 19 18 17 20 18 15 18 19 19 16 11 11 11 11 10 10 10 9 9 8 8 8 7 7 8 7 7 7 8 8 8 8 8 8 8 8 8 8 8
20 18 14 14 16 16 18 19 18 19 17 20 18 18 22 12 11 11 10 10 9 9 8 8 8 7 7 6 6 6 7 7 6 7 7 7 6 6 7 7 7 7 7 7
19 20 14 15 16 18 16 18 18 21 20 21 22 22 19 17 13 11 10 10 9 9 8 8 7 6 6 6 6 6 6 6 5 6 6 6 5 6 6 6 6 6 6 6
18 17 16 16 14 14 19 20 20 20 17 17 19 23 13 12 14 12 10 9 9 9 8 8 7 6 6 6 6 5 5 5 5 5 5 5 5 5 5 5 5 5 5 5
16 17 14 14 15 13 15 16 20 19 19 19 20 23 11 11 12 11 10 9 8 8 7 7 6 7 6 5 5 4 4 4 4 4 4 4 4 4 4 4 4 4 5 5
17 18 20 19 20 18 15 16 16 19 20 21 20 23 13 12 11 11 10 9 8 7 7 7 6 6 5 5 4 4 3 3 3 3 3 3 3 3 3 4 4 4 4 3
18 18 19 21 18 17 17 16 16 17 20 20 22 20 21 14 12 11 10 9 8 7 7 6 6 5 4 4 3 3 2 2 2 2 2 1 1 2 2 2 2 2 2 2
14 13 15 15 15 16 16 17 17 18 20 21 20 18 12 15 12 11 9 8 8 7 7 6 6 5 4 3 3 2 1 1 1 1 1 1 1 1 1 1 1 1 2 2
10 10 12 15 13 13 14 16 17 18 19 19 18 15 11 10 10 10 9 9 8 7 6 5 5 4 3 2 2 1 1 0 0 0 -0 -0 0 0 0 0 0 1 1 1
10 11 11 11 11 13 17 11 15 17 16 16 15 13 12 12 10 10 9 9 8 7 6 5 4 2 2 1 0 0 -0 -0 -0 -0 -1 -1 -1 -1 -0 -0 -0 -0 -0 -0
13 10 9 12 14 14 13 10 12 14 15 14 15 11 10 9 9 9 9 8 8 6 5 4 3 1 1 0 -0 -0 -1 -1 -1 -1 -1 -2 -1 -1 -1 -1 -1 -1 -1 -1
10 10 11 9 14 14 18 11 10 14 16 12 12 9 7 9 10 9 8 7 6 4 3 2 1 0 -0 -1 -1 -1 -1 -1 -2 -2 -2 -2 -2 -2 -2 -2 -2 -2 -2 -1
11 11 13 12 13 12 10 8 9 15 17 11 11 9 8 11 11 8 6 5 4 3 1 0 -0 -0 -1 -2 -1 -1 -2 -2 -3 -2 -3 -3 -3 -3 -2 -2 -2 -2 -2 -2
12 12 12 11 13 13 8 8 12 10 7 9 9 9 8 5 5 5 4 3 2 1 0 -1 -1 -2 -2 -2 -2 -2 -3 -3 -3 -3 -3 -3 -3 -3 -3 -3 -3 -2 -2 -2
12 11 12 12 13 5 5 6 6 7 8 7 7 5 4 4 3 3 3 3 2 0 -1 -1 -2 -3 -4 -3 -3 -3 -4 -4 -4 -4 -3 -3 -4 -4 -3 -3 -3 -3 -2 -2
5 5 8 7 3 3 3 5 6 6 6 5 5 4 4 3 3 2 1 0 -1 -2 -3 -4 -3 -3 -4 -4 -4 -4 -5 -4 -4 -4 -4 -4 -4 -4 -4 -4 -4 -3 -3 -2
3 3 5 2 1 3 2 3 4 4 5 4 4 4 3 2 1 0 -1 -2 -3 -4 -4 -3 -3 -3 -4 -5 -5 -5 -5 -5 -5 -5 -5 -4 -4 -4 -4 -4 -4 -4 -4 -4
-2 -0 6 7 4 5 1 1 3 3 2 3 2 2 2 1 -1 -2 -3 -3 -3 -3 -4 -4 -4 -4 -5 -6 -5 -5 -5 -5 -6 -6 -5 -5 -5 -5 -5 -5 -5 -5 -5 -5

GFSCGP_925_temp_300.txt.gz
Temp
17 17 17 19 20 22 23 22 22 23 22 21 20 21 20 20 21 21 21 19 20 20 18 19 19 20 21 22 21 19 18 18 17 17 17 17 17 17 17 17 17 17 16 16
17 16 19 21 21 21 22 22 22 20 22 21 20 21 21 19 20 21 21 20 19 16 16 17 17 18 18 20 21 20 18 18 18 17 17 17 17 17 17 17 16 16 15 15
17 19 20 20 20 21 21 21 22 20 20 21 21 21 22 20 21 20 20 20 18 17 16 15 16 16 17 18 19 20 19 18 18 18 18 18 18 17 16 16 15 15 15 15
18 20 20 20 20 21 20 23 23 19 18 18 20 17 20 19 18 17 17 16 15 16 16 15 15 15 15 16 18 19 20 19 18 18 18 17 17 16 16 15 15 14 14 15
18 19 19 19 20 21 21 22 21 20 19 20 20 16 24 21 18 17 16 15 14 14 13 13 12 12 11 13 15 17 19 19 18 18 17 17 16 16 16 15 14 14 14 14
18 18 19 20 21 21 21 20 20 20 18 15 20 18 20 21 21 19 17 15 14 12 11 10 10 10 9 11 12 15 18 18 18 18 17 17 16 16 15 14 13 12 13 12
17 17 17 18 19 20 20 19 14 15 13 15 19 19 21 21 20 20 18 14 12 12 10 9 8 9 8 9 11 13 15 15 16 16 15 16 16 15 14 13 12 12 11 11
15 13 16 18 20 18 18 20 14 14 15 16 18 17 20 16 16 18 16 14 12 11 10 8 9 8 8 8 9 10 11 12 13 14 14 14 14 13 12 11 11 11 11 10
16 17 17 18 19 19 17 18 20 18 19 16 16 19 16 15 16 15 13 12 11 10 9 8 9 8 7 7 8 8 9 9 10 11 11 11 11 11 10 10 10 10 9 9
19 14 16 16 17 18 18 20 19 16 15 17 17 18 17 14 13 14 12 11 10 10 9 8 9 8 8 8 8 8 8 8 8 8 8 9 9 9 9 9 9 9 9 9
19 17 15 15 15 17 16 17 19 17 15 15 16 16 19 17 15 14 12 11 10 9 8 8 8 8 8 8 7 7 8 7 8 7 8 8 8 8 8 8 8 8 8 8
18 18 13 14 16 18 18 18 18 19 17 16 15 19 14 15 15 14 12 11 9 9 8 7 8 8 8 7 7 7 7 7 7 7 7 7 7 7 7 7 7 7 8 8
18 16 13 14 16 15 16 18 19 20 18 17 16 18 14 14 13 13 12 11 10 9 8 7 7 7 7 7 7 7 7 7 6 6 6 6 6 6 6 6 6 7 6 6
18 17 16 14 16 16 16 17 18 18 16 18 18 20 12 13 12 12 11 10 9 9 8 7 7 7 7 7 6 6 6 6 5 5 5 5 5 5 5 5 5 5 5 5
17 16 17 18 18 18 17 17 17 16 19 18 20 19 19 13 13 12 11 10 10 8 8 7 6 6 6 6 5 5 5 5 4 4 4 4 4 4 4 4 4 4 4 5
17 11 15 15 18 18 17 17 17 17 19 19 19 19 19 14 13 11 10 10 10 8 8 7 7 6 6 5 4 4 4 4 4 3 3 3 3 3 3 3 3 4 4 4
13 10 9 14 16 13 12 16 17 17 18 18 17 16 14 13 12 11 10 10 9 8 8 7 6 6 5 4 4 3 3 3 3 2 2 2 2 2 2 2 3 3 3 3
10 11 9 8 9 10 15 16 17 18 18 18 18 17 14 14 12 12 11 10 9 8 7 7 6 5 4 4 3 2 2 2 2 1 1 1 2 2 2 2 2 2 2 2
12 9 11 11 12 13 14 14 16 16 15 15 17 16 12 10 11 12 10 10 9 8 7 6 5 4 3 3 2 2 1 1 1 0 1 1 1 1 1 1 1 1 1 1
12 12 11 10 11 12 16 15 16 16 15 15 16 13 10 11 11 8 10 9 8 7 6 4 3 2 2 1 1 1 1 0 -0 -0 -0 0 0 0 0 0 0 0 0 0
10 9 10 11 11 11 12 13 15 12 14 14 15 13 11 13 12 10 9 8 8 6 3 2 2 1 1 1 1 0 -0 -1 -1 -1 -0 -0 -0 -1 -1 -1 -1 -1 -0 -0
11 11 10 10 11 11 10 10 12 10 9 11 12 11 8 8 9 9 8 6 4 2 2 1 0 -0 0 0 -0 -1 -2 -2 -1 -1 -1 -1 -1 -1 -1 -1 -1 -1 -1 -1
11 11 11 11 10 6 5 6 7 7 9 9 8 7 8 8 7 6 4 3 2 1 -0 -1 -1 -1 -1 -1 -0 -2 -3 -2 -2 -2 -2 -2 -1 -2 -2 -2 -2 -2 -2 -3
6 4 8 8 5 4 5 6 6 7 6 6 7 7 7 6 5 3 2 1 -0 -1 -1 -2 -2 -2 -3 -2 -2 -2 -2 -2 -2 -2 -2 -2 -2 -3 -3 -3 -3 -3 -3 -4
0 2 5 3 3 4 4 5 5 5 5 5 5 5 5 3 2 1 0 -1 -1 -2 -2 -3 -3 -3 -4 -3 -4 -3 -3 -2 -3 -3 -3 -3 -3 -3 -4 -4 -4 -4 -4 -4
-3 -3 0 3 1 3 3 4 4 4 4 4 4 3 2 2 0 -1 -2 -2 -2 -2 -3 -3 -4 -4 -4 -4 -4 -4 -4 -3 -3 -4 -4 -4 -4 -4 -4 -4 -5 -5 -5 -4